Weather History for KISP - October, 2011

Change the Weather History Date:

Monday, October 3, 2011

  Actual Average Record
Temperature  
Mean Temperature 53 °F 59 °F  
Max Temperature 58 °F 68 °F 80 °F (2002)
Min Temperature 48 °F 50 °F 34 °F (2003)
Degree Days  
Heating Degree Days 12 7  
Month to date heating degree days 17 20  
Since 1 July heating degree days 41 97  
Cooling Degree Days 0 1  
Month to date cooling degree days 0 3  
Year to date cooling degree days 1070 780  
Growing Degree Days 2 (Base 50)    
Moisture  
Dew Point 46 °F    
Average Humidity 78    
Maximum Humidity 93    
Minimum Humidity 62    
Precipitation  
Precipitation 0.49 in 0.12 in 0.86 in (2009)
Month to date precipitation 0.78 0.36  
Year to date precipitation 41.24 35.08  
Snow  
Snow 0.00 in 0.00 in - ()
Month to date snowfall 0.0 0.0  
Since 1 July snowfall 0.0 0.0  
Snow Depth 0.00 in    
Sea Level Pressure  
Sea Level Pressure 30.00 in    
Wind  
Wind Speed 4 mph (WNW)    
Max Wind Speed 15 mph    
Max Gust Speed 20 mph    
Visibility 9 miles    
Events Rain    
T = Trace of Precipitation, MM = Missing Value Source: NWS Daily Summary

Daily Weather History Graph

Daily Weather History Graph

Search for Another Location

Airport or City:

Trip Planner

Search our weather history database for the weather conditions in past years. The results will help you decide how hot, cold, wet, or windy it might be!

Date:

Astronomy

Oct. 03, 2011 Rise Set
Actual Time 6:50 AM EDT 6:31 PM EDT
Civil Twilight 6:23 AM EDT 6:58 PM EDT
Nautical Twilight 5:51 AM EDT 7:30 PM EDT
Astronomical Twilight 5:19 AM EDT 8:02 PM EDT
Moon 1:48 PM EDT (10/3) 11:29 PM EDT (10/3)
Length of Visible Light 12h 35m
Length of Day
11h 40m
Waxing Crescent, 45% of the Moon is Illuminated
Oct 3
Waxing Crescent
Oct 3
First Quarter
Oct 11
Full
Oct 19
Last Quarter
Oct 26
New

Hourly Weather History & Observations

Time (EDT) Temp. Dew Point Humidity Pressure Visibility Wind Dir Wind Speed Gust Speed Precip Events Conditions
12:56 AM 53.1 °F 46.9 °F 80% 29.91 in 10.0 mi West 4.6 mph - N/A   Mostly Cloudy
1:56 AM 52.0 °F 46.0 °F 80% 29.92 in 10.0 mi NW 5.8 mph - N/A   Mostly Cloudy
2:56 AM 52.0 °F 48.0 °F 86% 29.92 in 10.0 mi North 3.5 mph - N/A   Overcast
3:56 AM 52.0 °F 46.9 °F 83% 29.94 in 10.0 mi NNE 4.6 mph - N/A   Mostly Cloudy
4:56 AM 52.0 °F 46.0 °F 80% 29.96 in 10.0 mi NW 5.8 mph - N/A   Overcast
5:56 AM 51.1 °F 45.0 °F 80% 29.98 in 10.0 mi NW 3.5 mph - N/A   Overcast
6:56 AM 48.9 °F 44.1 °F 83% 30.00 in 10.0 mi Calm Calm - N/A   Scattered Clouds
7:56 AM 51.1 °F 46.0 °F 83% 30.02 in 10.0 mi Calm Calm - N/A   Mostly Cloudy
8:56 AM 53.1 °F 44.1 °F 71% 30.03 in 10.0 mi North 4.6 mph - N/A   Mostly Cloudy
9:56 AM 54.0 °F 45.0 °F 72% 30.05 in 10.0 mi Calm Calm - N/A   Mostly Cloudy
10:56 AM 55.4 °F 44.6 °F 67% 30.05 in 10.0 mi Calm Calm - N/A   Mostly Cloudy
11:56 AM 55.9 °F 45.0 °F 67% 30.05 in 10.0 mi Calm Calm - N/A   Overcast
12:56 PM 57.2 °F 46.4 °F 67% 30.04 in 10.0 mi Calm Calm - N/A   Overcast
1:56 PM 57.0 °F 45.0 °F 64% 30.03 in 10.0 mi West 3.5 mph - N/A   Overcast
2:56 PM 57.9 °F 45.0 °F 62% 30.02 in 10.0 mi Calm Calm - N/A   Overcast
3:56 PM 57.0 °F 46.0 °F 67% 30.02 in 10.0 mi West 5.8 mph - N/A   Overcast
4:56 PM 53.1 °F 46.9 °F 80% 30.01 in 3.0 mi West 8.1 mph - 0.01 in Rain Light Rain
5:56 PM 53.1 °F 48.0 °F 83% 30.02 in 10.0 mi WNW 3.5 mph - 0.02 in   Overcast
6:56 PM 53.1 °F 48.9 °F 86% 30.02 in 10.0 mi WNW 3.5 mph - 0.00 in   Overcast
7:12 PM 51.8 °F 48.2 °F 88% 30.02 in 5.0 mi WSW 10.4 mph - 0.00 in Rain Light Rain
7:56 PM 50.0 °F 48.0 °F 93% 30.03 in 3.0 mi West 10.4 mph - 0.15 in Rain Rain
8:56 PM 50.0 °F 48.0 °F 93% 30.03 in 5.0 mi North 6.9 mph - 0.21 in Rain Light Rain
9:56 PM 51.1 °F 48.0 °F 89% 30.01 in 10.0 mi North 5.8 mph - 0.10 in Rain Light Rain
10:56 PM 50.0 °F 46.9 °F 89% 30.01 in 10.0 mi Calm Calm - 0.00 in   Mostly Cloudy
11:56 PM 48.0 °F 46.0 °F 93% 30.02 in 9.0 mi SW 6.9 mph - N/A   Mostly Cloudy